FLOCK 3P-28 (41960 NORAD) Tracking and Keplerian Element Data

This shows tracking and keplerian element data for the satellite.

Feedback or suggestion? Click here.




ElementValue
Catalog41960
NameFLOCK 3P-28
Epoch Orbit17717
Epoch Day114.72524553
Epoch Year2020
RAAN183.2925
Inclination97.3672
Eccentricity0.0009584
Argument of Perigee120.301
Mean Anonmoly239.9178
Mean Motion15.27026374
Decay Rate2.824E-05
L11 41960U 17008N 20114.72524553 .00002824 00000-0 10915-3 0 9992
L22 41960 97.3672 183.2925 0009584 120.3010 239.9178 15.27026374177178



Live tracking and technical data element details for FLOCK 3P-28 (NORAD 41960). FLOCK 3P-28 can be tracked NOW for your location showing map with azimuth and elevation plus other details from your city location.







IsCatalogInMostPopularTable: catalog: 41960, numindb: 600
Update: records affected: 1



GetName: 41960 FLOCK 3P-28

Hit Count: updated at: Tue, 18 Jun 2024 00:27:14 GMT